User: anonymous   Login
Location: Albuquerque Trailhead
(34.7934°N, 106.3736°W)
Time: 19:40:11
(UTC+00:00)
Language:

Cosmos 2263 Rocket - Orbit

View from above orbital plane
View from above orbital plane
View from above satellite
View from above satellite

Ground track
Ground track

The orbit data is extracted from the following two-line orbital elements,

1 22803U 93059B   21261.32093111  .00000025  00000-0  36112-4 0  9997
2 22803  70.9900 214.3334 0017290 186.5637 173.5262 14.16845412448151
Epoch (UTC): 18 September 2021 07:42:08
Eccentricity: 0.0017290
inclination: 70.9900°
perigee height: 823 km
apogee height: 848 km
right ascension of ascending node: 214.3334°
argument of perigee: 186.5637°
revolutions per day: 14.16845412
mean anomaly at epoch: 173.5262°
orbit number at epoch: 44815

The dashed part of the orbit path shows where the satellite is in the earth's shadow,  

DLR